AirNav   Air Wisconsin pilot careers
 
 999 users online  

C64 Cayuse Creek USFS Airport
Cayuse Creek, Idaho, USA

GOING TO CAYUSE CREEK?


FAA INFORMATION EFFECTIVE 28 FEBRUARY 2019

Location

FAA Identifier: C64
Lat/Long: 46-39-59.7030N / 115-04-23.4520W
46-39.995050N / 115-04.390867W
46.6665842 / -115.0731811
(estimated)
Elevation: 3505 ft. / 1068.3 m (surveyed)
Variation: 18E (1985)
From city: ARPT LCTD 4 MILES S OF OLD KELLY CREEK RANGER STATION.
Time zone: UTC -8 (UTC -7 during Daylight Saving Time)
Zip code: 59820

Airport Operations

Airport use: Open to the public
Activation date: 03/1945
Control tower: no
ARTCC: SEATTLE CENTER
FSS: BOISE FLIGHT SERVICE STATION
NOTAMs facility: BOI (NOTAM-D service available)
Attendance: UNATNDD
Wind indicator: yes
Segmented circle: yes
NON STD SEGMENTED CIRCLE.

Airport Communications

CTAF: 122.9

Airport Services

Airframe service: NONE
Powerplant service: NONE
Bottled oxygen: NONE
Bulk oxygen: NONE

Runway Information

Runway 4/22

Dimensions: 1800 x 75 ft. / 549 x 23 m
Surface: turf, in fair condition
Runway edge markings: RY THLDS MKD WITH CONC "T".
RUNWAY 4  RUNWAY 22
Gradient: 0.1%0.1%
Traffic pattern: leftleft
Runway end identifier lights: nono
Obstructions: 60 ft. tree, 150 ft. from runway, 120 ft. right of centerline, 2:1 slope to clear50 ft. trees, 85 ft. right of centerline

Airport Ownership and Management from official FAA records

Ownership: Publicly-owned
Owner: US FOREST SERVICE
12730 HWY 12
OROFINO, ID 83544
Phone 208-476-4541
Manager: ANDREW SKOWLAND
12730 HWY 12
OROFINO, ID 83544
Phone 208-476-4541

Airport Operational Statistics

Aircraft operations: avg 42/month *
100% transient general aviation
* for 12-month period ending 27 September 2016

Additional Remarks

NORMAL LNDG RWY 22.
RECOMMENDED FOR USE ONLY TO EXPERIENCED PILOTS WITH EARLY MORNING & LATE EVENING OPNS DURG SUMMER MONTHS.
NO WINTER MAINTENANCE.
TREES ON APPROACH BOTH ENDS.
BIG GAME ANIMALS AND STOCK ON AND INVOF RY.

Instrument Procedures

There are no published instrument procedures at C64.

Some nearby airports with instrument procedures:

32S - Stevensville Airport (43 nm E)
KMSO - Missoula International Airport (43 nm E)
6S5 - Ravalli County Airport (46 nm SE)
KGIC - Idaho County Airport (61 nm SW)
7S0 - Ronan Airport (67 nm NE)
 
Loc | Ops | Rwys | IFR | FBO | Links
Com | Nav | Svcs | Stats | Notes
Area around C64 (Cayuse Creek USFS Airport)
 
Road maps at: MapQuest Bing Google
 
Aerial photo
No photo
 
Sectional chart

 
Airport distance calculator
Flying to Cayuse Creek USFS Airport? Find the distance to fly.

From to C64

Sunrise and sunset
Times for 24-Mar-2019
 Local
(UTC-7)
 Zulu
(UTC)
Morning civil twilight06:0613:06
Sunrise06:3613:36
Sunset18:5701:57
Evening civil twilight19:2702:27

Current date and time
Zulu (UTC)  24-Mar-2019 15:54:13
Local (UTC-7)  24-Mar-2019 08:54:13
 
METAR
KP69 
38nm SW 
241452Z AUTO 00000KT 03/02 A3009 RMK AO1 SLP206 T00280017 53008
KMSO 
43nm E 
241453Z 00000KT 9SM SCT002 M01/M03 A3010 RMK AO2 SLP217 T10111033 53006
S34 
49nm N 
SuperAWOS
241455Z AUTO 00000KT 3/4SM BR M03/M06 A3011
TAF
KMSO 
43nm E 
241356Z 2414/2512 VRB03KT 4SM BR VCFG SKC FM241700 11007KT P6SM SCT070 BKN100 FM242200 10008KT P6SM VCSH FEW050 OVC100 FM250200 07007KT 6SM -SHRA OVC050
NOTAMs
Click for the latest NOTAMs
NOTAMs are issued by the DoD/FAA and will open in a separate window not controlled by AirNav.

 

 
 

Would you like to see your business listed on this page?

 If your business provides an interesting product or service to pilots, flight crews, aircraft, or users of the Cayuse Creek USFS Airport, you should consider listing it here.  To start the listing process, click on the button below
 
Add a business
 

Other Pages about Cayuse Creek USFS Airport

www.flyidaho.org/...
 
Update a link
 
Copyright © AirNav, LLC. All rights reserved. Privacy Policy  Contact